Location: �clusier
(49.9361°N, 2.7869°E)
Time: 22:24:33
(UTC+00:00)

Cosmos 2123 Rocket - Pass Details

Date: 16 June 2021
Orbit: 961 x 992 km, 82.9° (Epoch: 02 August)

Event Time Altitude Azimuth Distance (km) Brightness Sun altitude
Exits shadow 21:34:04 11° 173° (S) 2,698 5.8 -10.8°
Maximum altitude 21:40:09 63° 94° (E) 1,097 4.1 -11.3°
Drops below altitude 10° 21:46:24 10° 15° (NNE) 2,767 7.1 -11.7°
Sets 21:48:58 0° 12° (NNE) 3,721 7.9 -11.9°
